Regional Weather Roundup
Issued by NWS

Home | Current Version | Previous Version | Graphics & Text | Print | Product List | Glossary On
Versions: 1 2 3 4 5 6 7 8 9 10 11 12 13 14 15 16 17 18 19 20 21 22 23 24 25 26 27 28 29 30 31 32 33 34 35 36 37 38 39 40 41 42 43 44 45 46 47 48 49 50
000
ASUS45 KTFX 251719
RWRMT
MONTANA HOURLY WEATHER ROUNDUP
NATIONAL WEATHER SERVICE GREAT FALLS MT
1019 AM MST SUN JAN 25 2015

NOTE: "FAIR" INDICATES FEW OR NO CLOUDS BELOW 12000 FEET WITH NO
SIGNIFICANT WEATHER AND/OR OBSTRUCTIONS TO VISIBILITY.

* THESE STATIONS ARE NOT UNDER NWS QUALITY CONTROL. THEY DO NOT
   REPORT WEATHER SUCH AS PRECIPITATION OR FOG.

MTZ001>007-043-251800-
WEST OF THE DIVIDE
CITY           SKY/WX    TMP DP  RH WIND       PRES   REMARKS
KALISPELL      PTCLDY    36  34  92 SW5       30.14S WCI  32
MISSOULA       FOG       32  32 100 SW7       30.24S VSB M1/4 WCI  25
BUTTE          PTCLDY    32  28  85 N3        30.24S
MULLAN PASS    PTSUNNY   37  36  96 W8        30.23S WCI  31
* ANACONDA     SUNNY     50  32  50 S6         N/A
* ESSEX        N/A       37  36  96 E1         N/A
* EUREKA APT   PTCLDY    45  37  74 S3        30.13S
* HAMILTON APT PTSUNNY   57  32  39 S8        30.22R
* LIBBY APT    CLOUDY    36  36 100 CALM      30.17R VSB M1/4
* LINCOLN      N/A       44  37  76 S5G13      N/A
* LOOKOUT PASS N/A       41  38  89 NE1        N/A
* POLSON       N/A       43  38  83 S3G9       N/A
* RONAN APT    PTCLDY    41  41 100 N/A        N/A
* SEELEY LAKE  N/A       31  30  96 NE1G6      N/A
* THOMP F APT  PTCLDY    27  25  92 NE1G6      N/A
* YAAK HILL    N/A       38  36  93 NW2        N/A
$$

MTZ008-052>055-251800-
SOUTHWEST MONTANA
CITY           SKY/WX    TMP DP  RH WIND       PRES   REMARKS
BOZEMAN        CLOUDY    36  32  85 NW3       30.20R
DILLON         PTCLDY    41  30  65 SW15      30.27R
* W YELLOWSTON PTSUNNY   28  26  92 SW3        N/A
* THREE FORKS  CLOUDY    39  36  89 N/A        N/A
* BOULDER HILL N/A       45  29  54 SW9        N/A
* MONIDA PASS  N/A       23  23 100 SE15       N/A   WCI  10
* RAYNOLDS PAS N/A       27   9  46 SE14       N/A   WCI  16
* WHITEHALL    N/A       48  34  59 SW18G30    N/A
* WISE RIVER   N/A       44  31  60 NW14G25    N/A
$$

MTZ009>010-012-014-046-048-049-054-251800-
EAST SLOPES AND CENTRAL MONTANA
CITY           SKY/WX    TMP DP  RH WIND       PRES   REMARKS
CUT BANK       PTSUNNY   43  36  76 W23       29.94R
GREAT FALLS    CLOUDY    52  36  55 SW21      29.98R
HELENA         CLOUDY    48  36  63 CALM      30.16R
MALMSTROM AFB  CLOUDY    52  36  55 SW26G35   29.98R
* CONRAD       CLOUDY    52  37  57 SW9        N/A
* DEARBORN     N/A       56  34  44 SE19G27    N/A
* EAST GLACIER N/A       47  33  58 SW9G20     N/A
* MONARCH      N/A       46  27  48 W24G35     N/A
* PENDROY      N/A       49  34  56 NW24G31    N/A
* ROGERS PASS  N/A       43  35  73 SE14G34    N/A
* SWEET GRASS  N/A       50  34  54 W27G43     N/A
* WHITE SULPH  N/A       44  32  63 N2G10      N/A
$$

MTZ011-013-016-021-035-040-045-047-050-051-251800-
NORTH CENTRAL MONTANA
CITY           SKY/WX    TMP DP  RH WIND       PRES   REMARKS
HAVRE          PTSUNNY   46  37  71 SW20G29   29.87R
LEWISTOWN      PTSUNNY   43  34  71 SW16      29.97R
* N BAR RANCH  SUNNY     50  34  54 W6        29.96S
* CHINOOK      PTCLDY    34  28  79 CALM      29.88S
* CHESTER      N/A       49  36  61 W16G24     N/A
* DENTON       N/A       46  33  61 SW14G21    N/A
* GEYSER       N/A       53  31  43 SW17G30    N/A
* JUDITH GAP   N/A       47  37  68 W30G42     N/A
* LOMA         N/A       44  36  74 W11        N/A
$$

MTZ017>020-022>027-061-062-251800-
NORTHEAST MONTANA
CITY           SKY/WX    TMP DP  RH WIND       PRES   REMARKS
GLASGOW        CLOUDY    34  27  76 SE10      29.89F WCI  26
GLENDIVE       PTCLDY    37  28  70 S9        29.97F WCI  30
JORDAN         PTSUNNY   39  34  82 W7        29.91F WCI  34
SIDNEY         PTSUNNY   34  28  79 S8        29.98F WCI  27
WOLF POINT     PTSUNNY   34  28  79 CALM      29.94F
* BEAVER HILL  N/A       32  27  82 S8         N/A   WCI  25
* CIRCLE       N/A       37  31  79 S4         N/A
* LINDSAY DVD  N/A       43  24  47 SW10       N/A
* NAVAJO       N/A       33  28  82 SW11G16    N/A   WCI  24
* PLENTYWOOD A PTCLDY    32  28  85 S6        29.93F WCI  26
* POPLAR APT   PTCLDY    34  28  79 SE5       29.94F WCI  29
* SACO         N/A       32  28  85 NE4        N/A
* SCOBEY APT   PTSUNNY   30  25  82 SE6        N/A   WCI  24
$$

MTZ028>042-056>058-251800-
SOUTHCENTRAL AND SOUTHEAST MONTANA
CITY           SKY/WX    TMP DP  RH WIND       PRES   REMARKS
BAKER          PTCLDY    37  28  70 W8        29.99R WCI  31
BILLINGS       CLOUDY    43  30  60 SW17      30.01F
LIVINGSTON     PTSUNNY   46  27  48 W31G41    30.14R
MILES CITY     CLOUDY    36  28  73 S10       29.97F WCI  29
* BIG TIMBER A PTSUNNY   48  28  46 SW33G39   30.08R
* FORSYTH APT  PTCLDY    39  32  76 CALM      29.96F
* LAUREL APT   CLOUDY    41  21  45 S9         N/A
* ROUNDUP APT  CLOUDY    54  34  47 SW18G30    N/A
* ALZADA       N/A       40  28  62 SW2        N/A
* HYSHAM       N/A       43  31  63 W7G12      N/A
* LAME DEER    N/A       43  32  65 W8G14      N/A
* REED POINT   N/A       56  34  44 W17G24     N/A
* ROSCOE HILL  N/A       55  20  25 W12G26     N/A
$$

REGIONAL REPORTS...DAKOTAS
CITY           SKY/WX    TMP DP  RH WIND       PRES   REMARKS
WILLISTON      CLOUDY    36  28  73 SW8       29.98S WCI  30
DICKINSON      CLOUDY    34  28  79 W13       29.97R WCI  25
BEACH          SUNNY     32  28  85 SW7       29.98F WCI  25
CROSBY         CLOUDY    32  32 100 SW8       29.95F WCI  25
TIOGA          CLOUDY    30  30 100 SW8       29.99S WCI  22
WATFORD CITY   CLOUDY    32  30  92 SW10      29.96S WCI  24
BISMARCK       CLOUDY    36  30  79 NW3       30.01S
GRAND FORKS    PTCLDY    19  10  68 CALM      30.04F
FARGO          SUNNY     21  14  74 N7        30.05R WCI  12
BUFFALO SD     SUNNY     39  27  62 W10       29.93F WCI  32
RAPID CITY     PTCLDY    43  19  38 S6        30.04F
$$

REGIONAL REPORTS...WYOMING/IDAHO/WASHINGTON
CITY           SKY/WX    TMP DP  RH WIND       PRES   REMARKS
GILLETTE       CLOUDY    39  32  76 SW10      30.06S WCI  32
SHERIDAN       CLOUDY    39  34  82 S7        30.04F WCI  34
CODY           CLOUDY    52  28  40 W12G25    30.09S
YELLOWSTONE LA CLOUDY    27  25  92 CALM      30.39R
SALMON         PTCLDY    27  23  85 CALM      30.41R
MULLAN PASS    PTSUNNY   37  36  96 W8        30.23S WCI  31
SAND POINT     CLOUDY    43  43 100 SW6       30.23R
SPOKANE        CLOUDY    43  39  86 S6        30.23R
$$

REGIONAL REPORTS...ALBERTA
CITY           SKY/WX    TMP DP  RH WIND       PRES   REMARKS
CALGARY        PTSUNNY   50  28  43 SW9       29.80R
LETHBRIDGE     PTSUNNY   54  34  47 W35G45    29.84R
MEDICINE HAT   PTSUNNY   43  36  76 SW9       29.81R
EDMONTON       PTSUNNY   36  30  79 SW7       29.68R WCI  30
WATERTON GATE  N/A       54  30  40 SW16G25    N/A
CARDSTON       N/A       52  34  50 W12        N/A
MILK RIVER     N/A       48  36  63 W31G38     N/A
$$

REGIONAL REPORTS...SASKATCHEWAN
CITY           SKY/WX    TMP DP  RH WIND       PRES   REMARKS
SWIFT CURRENT  CLOUDY    37  28  70 SW18      29.77R WCI  27
REGINA         FOG       27  27 100 SE10      29.88F VSB 3    WCI  18
VAL MARIE      N/A       32  30  92 SW7        N/A   WCI  25
ASSINIBOIA     N/A       34  28  79 S7         N/A   WCI  28
CORONACH       N/A       32  28  85 S6         N/A   WCI  26

$$




USA.gov is the U.S. government's official web portal to all federal, state and local government web resources and services.